軌道要素
Epoch 2022 Aug. 9.0 TT = JDT 2459800.5
T 2022 Jan. 26.59397 TT Rudenko
q 2.3631528 (2000.0) P Q
z +0.0046033 Peri. 321.46285 -0.80455617 -0.59310402
+/-0.0000005 Node 182.75504 +0.56503022 -0.78017929
e 0.9891216 Incl. 39.05061 -0.18283935 +0.19886652
From 462 observations 2021 Oct. 29-2022 Aug. 26, mean residual 0".6.
|